User: anonymous   Login
Location: Oshawa
(43.9000°N, 78.8670°W)
Time: 06:47:36
(UTC-05:00)
Language:

Cosmos 1953 Rocket - Orbit

View from above orbital plane
View from above orbital plane
View from above satellite
View from above satellite

Ground track
Ground track

The orbit data is extracted from the following two-line orbital elements,

1 19211U 88050B   16039.81086220  .00000283  00000-0  31883-4 0  9991
2 19211  82.5282 304.7555 0020715 309.1808 111.7954 14.82862683493525
Epoch (UTC): 08 February 2016 19:27:38
Eccentricity: 0.0020715
inclination: 82.5282°
perigee height: 606 km
apogee height: 635 km
right ascension of ascending node: 304.7555°
argument of perigee: 309.1808°
revolutions per day: 14.82862683
mean anomaly at epoch: 111.7954°
orbit number at epoch: 49352

The dashed part of the orbit path shows where the satellite is in the earth's shadow,  

DLR